Time,TemperatureF,DewpointF,PressureIn,WindDirection,WindDirectionDegrees,WindSpeedMPH,WindSpeedGustMPH,Humidity,HourlyPrecipIn,Conditions,Clouds,dailyrainin,SoftwareType,DateUTC
2013-03-21 00:02:00,46.0,44.0,30.03,WSW,240,2.0,5.0,93,0.00,,,0.60,,2013-03-21 07:02:00,
2013-03-21 00:12:00,46.0,44.0,30.03,WSW,240,2.0,5.0,93,0.00,,,0.60,,2013-03-21 07:12:00,
2013-03-21 00:21:00,45.0,43.0,30.03,WNW,294,1.0,4.0,94,0.00,,,0.60,,2013-03-21 07:21:00,
2013-03-21 00:32:00,44.0,42.0,30.03,SW,232,0.0,2.0,94,0.00,,,0.60,,2013-03-21 07:32:00,
2013-03-21 00:42:00,44.0,42.0,30.03,SW,232,0.0,2.0,94,0.00,,,0.60,,2013-03-21 07:42:00,
2013-03-21 00:52:00,44.0,43.0,30.03,WNW,293,1.0,5.0,95,0.00,,,0.60,,2013-03-21 07:52:00,
2013-03-21 01:01:00,43.0,42.0,30.02,WNW,297,2.0,5.0,95,0.00,,,0.60,,2013-03-21 08:01:00,
2013-03-21 01:12:00,43.0,42.0,30.02,WNW,297,2.0,5.0,95,0.00,,,0.60,,2013-03-21 08:12:00,
2013-03-21 01:22:00,43.0,42.0,30.03,North,350,2.0,6.0,95,0.00,,,0.60,,2013-03-21 08:22:00,
2013-03-21 01:33:00,42.0,40.0,30.02,WSW,242,1.0,3.0,94,0.00,,,0.56,,2013-03-21 08:33:00,
2013-03-21 01:42:00,42.0,40.0,30.02,WSW,242,1.0,3.0,94,0.00,,,0.56,,2013-03-21 08:42:00,
2013-03-21 01:51:00,42.0,40.0,30.02,North,355,0.0,4.0,94,0.00,,,0.56,,2013-03-21 08:51:00,
2013-03-21 02:02:00,41.0,40.0,30.02,SW,234,1.0,3.0,95,0.00,,,0.56,,2013-03-21 09:02:00,
2013-03-21 02:11:00,41.0,40.0,30.02,SW,234,1.0,3.0,95,0.00,,,0.56,,2013-03-21 09:11:00,
2013-03-21 02:21:00,40.0,38.0,30.01,WSW,242,1.0,6.0,94,0.00,,,0.56,,2013-03-21 09:21:00,
2013-03-21 02:33:00,40.0,39.0,30.01,SW,215,1.0,3.0,95,0.00,,,0.46,,2013-03-21 09:33:00,
2013-03-21 02:43:00,40.0,39.0,30.01,SW,215,1.0,3.0,95,0.00,,,0.46,,2013-03-21 09:43:00,
2013-03-21 02:53:00,39.0,38.0,30.02,WSW,248,1.0,6.0,95,0.00,,,0.46,,2013-03-21 09:53:00,
2013-03-21 03:02:00,39.0,37.0,30.02,South,185,0.0,3.0,94,0.00,,,0.46,,2013-03-21 10:02:00,
2013-03-21 03:12:00,39.0,37.0,30.02,South,185,0.0,3.0,94,0.00,,,0.46,,2013-03-21 10:12:00,
2013-03-21 03:22:00,39.0,38.0,30.01,West,268,1.0,3.0,95,0.00,,,0.46,,2013-03-21 10:22:00,
2013-03-21 03:32:00,38.0,37.0,30.01,SW,215,0.0,3.0,95,0.00,,,0.39,,2013-03-21 10:32:00,
2013-03-21 03:42:00,38.0,37.0,30.01,SW,215,0.0,3.0,95,0.00,,,0.39,,2013-03-21 10:42:00,
2013-03-21 03:52:00,38.0,37.0,30.01,WSW,253,1.0,6.0,95,0.00,,,0.39,,2013-03-21 10:52:00,
2013-03-21 04:02:00,38.0,37.0,30.01,NNW,335,1.0,5.0,96,0.00,,,0.39,,2013-03-21 11:02:00,
2013-03-21 04:12:00,38.0,37.0,30.01,NNW,335,1.0,5.0,96,0.00,,,0.39,,2013-03-21 11:12:00,
2013-03-21 04:22:00,38.0,37.0,30.02,WSW,248,2.0,6.0,95,0.00,,,0.39,,2013-03-21 11:22:00,
2013-03-21 04:32:00,38.0,37.0,30.01,SW,236,0.0,6.0,96,0.00,,,0.37,,2013-03-21 11:32:00,
2013-03-21 04:42:00,38.0,37.0,30.01,SW,236,0.0,6.0,96,0.00,,,0.37,,2013-03-21 11:42:00,
2013-03-21 04:52:00,37.0,36.0,30.01,SE,140,1.0,3.0,96,0.00,,,0.37,,2013-03-21 11:52:00,
2013-03-21 05:02:00,37.0,36.0,30.01,SE,140,1.0,3.0,96,0.00,,,0.37,,2013-03-21 12:02:00,
2013-03-21 05:12:00,37.0,36.0,30.01,SE,140,1.0,3.0,96,0.00,,,0.37,,2013-03-21 12:12:00,
2013-03-21 05:22:00,37.0,36.0,30.01,SE,139,1.0,2.0,96,0.00,,,0.37,,2013-03-21 12:22:00,
2013-03-21 05:32:00,37.0,36.0,29.99,SE,133,2.0,5.0,96,0.00,,,0.34,,2013-03-21 12:32:00,
2013-03-21 05:42:00,37.0,36.0,29.99,SE,133,2.0,5.0,96,0.00,,,0.34,,2013-03-21 12:42:00,
2013-03-21 05:52:00,37.0,36.0,29.99,SE,146,2.0,4.0,97,0.00,,,0.34,,2013-03-21 12:52:00,
2013-03-21 06:02:00,37.0,36.0,30.01,SW,225,0.0,3.0,96,0.00,,,0.34,,2013-03-21 13:02:00,
2013-03-21 06:12:00,37.0,36.0,30.01,SW,225,0.0,3.0,96,0.00,,,0.34,,2013-03-21 13:12:00,
2013-03-21 06:22:00,36.0,35.0,30.01,SE,130,3.0,4.0,96,0.00,,,0.34,,2013-03-21 13:22:00,
2013-03-21 06:32:00,36.0,35.0,30.01,SE,130,3.0,4.0,96,0.00,,,0.34,,2013-03-21 13:32:00,
2013-03-21 06:42:00,36.0,35.0,30.01,SE,130,3.0,4.0,96,0.00,,,0.34,,2013-03-21 13:42:00,
2013-03-21 06:52:00,37.0,36.0,30.00,SE,146,2.0,4.0,97,0.00,,,0.26,,2013-03-21 13:52:00,
2013-03-21 07:02:00,36.0,35.0,30.01,SSE,152,1.0,3.0,97,0.00,,,0.26,,2013-03-21 14:02:00,
2013-03-21 07:12:00,36.0,35.0,30.01,SSE,152,1.0,3.0,97,0.00,,,0.26,,2013-03-21 14:12:00,
2013-03-21 07:21:00,36.0,35.0,30.01,SE,138,1.0,3.0,97,0.00,,,0.26,,2013-03-21 14:21:00,
2013-03-21 07:32:00,36.0,35.0,30.01,SE,136,2.0,3.0,97,0.00,,,0.26,,2013-03-21 14:32:00,
2013-03-21 07:42:00,36.0,35.0,30.01,SE,136,2.0,3.0,97,0.00,,,0.26,,2013-03-21 14:42:00,
2013-03-21 07:51:00,36.0,35.0,30.01,SE,136,1.0,3.0,97,0.00,,,0.26,,2013-03-21 14:51:00,
2013-03-21 08:02:00,36.0,35.0,30.02,SE,136,1.0,2.0,97,0.00,,,0.26,,2013-03-21 15:02:00,
2013-03-21 08:12:00,36.0,35.0,30.02,SE,136,1.0,2.0,97,0.00,,,0.26,,2013-03-21 15:12:00,
2013-03-21 08:22:00,36.0,35.0,30.02,SE,136,0.0,3.0,97,0.00,,,0.26,,2013-03-21 15:22:00,
2013-03-21 08:32:00,37.0,36.0,30.02,SE,136,1.0,2.0,97,0.00,,,0.25,,2013-03-21 15:32:00,
2013-03-21 08:42:00,37.0,36.0,30.02,SE,136,1.0,2.0,97,0.00,,,0.25,,2013-03-21 15:42:00,
2013-03-21 08:52:00,37.0,36.0,30.02,SE,136,1.0,2.0,97,0.00,,,0.25,,2013-03-21 15:52:00,
2013-03-21 09:03:00,39.0,38.0,30.02,NE,42,1.0,3.0,97,0.00,,,0.25,,2013-03-21 16:03:00,
2013-03-21 09:12:00,39.0,38.0,30.02,NE,42,1.0,3.0,97,0.00,,,0.25,,2013-03-21 16:12:00,
2013-03-21 09:22:00,39.0,38.0,30.02,NNE,16,1.0,3.0,95,0.00,,,0.25,,2013-03-21 16:22:00,
2013-03-21 09:33:00,41.0,39.0,30.02,NNE,15,1.0,3.0,94,0.00,,,0.24,,2013-03-21 16:33:00,
2013-03-21 09:42:00,41.0,39.0,30.02,NNE,15,1.0,3.0,94,0.00,,,0.24,,2013-03-21 16:42:00,
2013-03-21 09:52:00,43.0,41.0,30.02,NNW,337,2.0,4.0,94,0.00,,,0.24,,2013-03-21 16:52:00,
2013-03-21 10:02:00,44.0,42.0,30.03,North,355,2.0,7.0,91,0.00,,,0.24,,2013-03-21 17:02:00,
2013-03-21 10:12:00,44.0,42.0,30.03,North,355,2.0,7.0,91,0.00,,,0.24,,2013-03-21 17:12:00,
2013-03-21 10:22:00,47.0,44.0,30.02,NW,309,1.0,4.0,90,0.00,,,0.24,,2013-03-21 17:22:00,
2013-03-21 10:32:00,49.0,46.0,30.03,WNW,294,2.0,6.0,88,0.00,,,0.11,,2013-03-21 17:32:00,
2013-03-21 10:42:00,49.0,46.0,30.03,WNW,294,2.0,6.0,88,0.00,,,0.11,,2013-03-21 17:42:00,
2013-03-21 10:52:00,50.0,46.0,30.03,WNW,291,3.0,7.0,85,0.00,,,0.11,,2013-03-21 17:52:00,
2013-03-21 11:02:00,51.0,46.0,30.03,NW,304,2.0,5.0,83,0.00,,,0.11,,2013-03-21 18:02:00,
2013-03-21 11:11:00,51.0,46.0,30.03,NW,304,2.0,5.0,83,0.00,,,0.11,,2013-03-21 18:11:00,
2013-03-21 11:22:00,52.0,46.0,30.03,WNW,300,2.0,6.0,80,0.00,,,0.11,,2013-03-21 18:22:00,
2013-03-21 11:32:00,53.0,47.0,30.03,WNW,293,2.0,7.0,81,0.00,,,0.02,,2013-03-21 18:32:00,
2013-03-21 11:42:00,53.0,47.0,30.03,WNW,293,2.0,7.0,81,0.00,,,0.02,,2013-03-21 18:42:00,
2013-03-21 11:52:00,54.0,46.0,30.04,NNW,337,2.0,7.0,75,0.00,,,0.02,,2013-03-21 18:52:00,
2013-03-21 12:02:00,54.0,45.0,30.03,North,360,4.0,8.0,71,0.00,,,0.02,,2013-03-21 19:02:00,
2013-03-21 12:11:00,54.0,45.0,30.03,North,360,4.0,8.0,71,0.00,,,0.02,,2013-03-21 19:11:00,
2013-03-21 12:22:00,55.0,47.0,30.03,NW,315,3.0,9.0,73,0.00,,,0.02,,2013-03-21 19:22:00,
2013-03-21 12:32:00,56.0,44.0,30.03,NW,312,3.0,7.0,65,0.00,,,0.00,,2013-03-21 19:32:00,
2013-03-21 12:52:00,58.0,46.0,30.03,WSW,254,3.0,7.0,64,0.00,,,0.00,,2013-03-21 19:52:00,
2013-03-21 13:02:00,58.0,45.0,30.02,NNW,333,1.0,7.0,62,0.00,,,0.00,,2013-03-21 20:02:00,
2013-03-21 13:12:00,58.0,45.0,30.02,NNW,333,1.0,7.0,62,0.00,,,0.00,,2013-03-21 20:12:00,
2013-03-21 13:22:00,59.0,47.0,30.02,WNW,288,2.0,8.0,64,0.00,,,0.00,,2013-03-21 20:22:00,
2013-03-21 13:32:00,60.0,46.0,30.01,NW,317,3.0,7.0,60,0.00,,,0.00,,2013-03-21 20:32:00,
2013-03-21 13:42:00,60.0,46.0,30.01,NW,317,3.0,7.0,60,0.00,,,0.00,,2013-03-21 20:42:00,
2013-03-21 14:02:00,61.0,46.0,30.00,WNW,292,5.0,8.0,58,0.00,,,0.00,,2013-03-21 21:02:00,
2013-03-21 14:12:00,61.0,46.0,30.00,WNW,292,5.0,8.0,58,0.00,,,0.00,,2013-03-21 21:12:00,
2013-03-21 14:22:00,61.0,47.0,30.00,West,271,3.0,10.0,59,0.00,,,0.00,,2013-03-21 21:22:00,
2013-03-21 14:32:00,62.0,47.0,29.98,NNW,347,2.0,8.0,58,0.00,,,0.00,,2013-03-21 21:32:00,
2013-03-21 14:43:00,62.0,47.0,29.98,NNW,347,2.0,8.0,58,0.00,,,0.00,,2013-03-21 21:43:00,
2013-03-21 14:52:00,63.0,46.0,29.98,NW,309,2.0,7.0,54,0.00,,,0.00,,2013-03-21 21:52:00,
2013-03-21 15:02:00,63.0,46.0,29.97,NW,315,4.0,7.0,53,0.00,,,0.00,,2013-03-21 22:02:00,
2013-03-21 15:12:00,63.0,46.0,29.97,NW,315,4.0,7.0,53,0.00,,,0.00,,2013-03-21 22:12:00,
2013-03-21 15:22:00,63.0,46.0,29.97,NW,315,4.0,7.0,53,0.00,,,0.00,,2013-03-21 22:22:00,
2013-03-21 15:33:00,64.0,45.0,29.96,NW,306,4.0,10.0,51,0.00,,,0.00,,2013-03-21 22:33:00,
2013-03-21 15:42:00,64.0,45.0,29.96,NW,306,4.0,10.0,51,0.00,,,0.00,,2013-03-21 22:42:00,
2013-03-21 15:52:00,64.0,44.0,29.95,NNW,335,4.0,9.0,48,0.00,,,0.00,,2013-03-21 22:52:00,
2013-03-21 16:02:00,64.0,43.0,29.95,WSW,254,4.0,9.0,47,0.00,,,0.00,,2013-03-21 23:02:00,
2013-03-21 16:12:00,64.0,43.0,29.95,WSW,254,4.0,9.0,47,0.00,,,0.00,,2013-03-21 23:12:00,
2013-03-21 16:21:00,64.0,43.0,29.95,NW,311,4.0,10.0,47,0.00,,,0.00,,2013-03-21 23:21:00,
2013-03-21 16:32:00,64.0,45.0,29.94,WNW,298,2.0,8.0,51,0.00,,,0.00,,2013-03-21 23:32:00,
2013-03-21 16:42:00,64.0,45.0,29.94,WNW,298,2.0,8.0,51,0.00,,,0.00,,2013-03-21 23:42:00,
2013-03-21 16:52:00,65.0,43.0,29.94,NNW,327,4.0,8.0,44,0.00,,,0.00,,2013-03-21 23:52:00,
2013-03-21 17:02:00,63.0,43.0,29.93,NW,316,3.0,11.0,48,0.00,,,0.00,,2013-03-22 00:02:00,
2013-03-21 17:11:00,63.0,43.0,29.93,NW,316,3.0,11.0,48,0.00,,,0.00,,2013-03-22 00:11:00,
2013-03-21 17:22:00,64.0,43.0,29.93,WNW,296,4.0,9.0,46,0.00,,,0.00,,2013-03-22 00:22:00,
2013-03-21 17:31:00,64.0,42.0,29.93,WNW,283,4.0,10.0,44,0.00,,,0.00,,2013-03-22 00:31:00,
2013-03-21 17:42:00,64.0,42.0,29.93,WNW,283,4.0,10.0,44,0.00,,,0.00,,2013-03-22 00:42:00,
2013-03-21 17:52:00,64.0,41.0,29.93,WNW,298,4.0,9.0,43,0.00,,,0.00,,2013-03-22 00:52:00,
2013-03-21 18:02:00,64.0,41.0,29.93,WNW,298,4.0,9.0,43,0.00,,,0.00,,2013-03-22 01:02:00,
2013-03-21 18:12:00,64.0,41.0,29.93,WNW,298,4.0,9.0,43,0.00,,,0.00,,2013-03-22 01:12:00,
2013-03-21 18:21:00,64.0,41.0,29.93,WNW,298,4.0,9.0,43,0.00,,,0.00,,2013-03-22 01:21:00,
2013-03-21 18:32:00,63.0,43.0,29.92,WNW,294,3.0,7.0,48,0.00,,,0.00,,2013-03-22 01:32:00,
2013-03-21 18:43:00,63.0,43.0,29.92,WNW,294,3.0,7.0,48,0.00,,,0.00,,2013-03-22 01:43:00,
2013-03-21 18:53:00,62.0,43.0,29.92,WNW,290,3.0,6.0,50,0.00,,,0.00,,2013-03-22 01:53:00,
2013-03-21 19:02:00,60.0,42.0,29.92,NNW,342,4.0,9.0,51,0.00,,,0.00,,2013-03-22 02:02:00,
2013-03-21 19:12:00,60.0,42.0,29.92,NNW,342,4.0,9.0,51,0.00,,,0.00,,2013-03-22 02:12:00,
2013-03-21 19:22:00,58.0,41.0,29.92,WNW,296,2.0,7.0,54,0.00,,,0.00,,2013-03-22 02:22:00,
2013-03-21 19:32:00,56.0,42.0,29.92,West,277,2.0,6.0,59,0.00,,,0.00,,2013-03-22 02:32:00,
2013-03-21 19:42:00,56.0,42.0,29.92,West,277,2.0,6.0,59,0.00,,,0.00,,2013-03-22 02:42:00,
2013-03-21 19:51:00,54.0,41.0,29.92,WSW,255,0.0,3.0,61,0.00,,,0.00,,2013-03-22 02:51:00,
2013-03-21 20:02:00,52.0,41.0,29.93,WSW,239,3.0,9.0,65,0.00,,,0.00,,2013-03-22 03:02:00,
2013-03-21 20:21:00,51.0,39.0,29.93,WSW,247,1.0,5.0,64,0.00,,,0.00,,2013-03-22 03:21:00,
2013-03-21 20:33:00,50.0,40.0,29.93,NW,325,0.0,5.0,68,0.00,,,0.00,,2013-03-22 03:33:00,
2013-03-21 20:52:00,49.0,40.0,29.93,West,261,0.0,3.0,70,0.00,,,0.00,,2013-03-22 03:52:00,
2013-03-21 21:03:00,47.0,39.0,29.93,SSE,154,2.0,3.0,75,0.00,,,0.00,,2013-03-22 04:03:00,
2013-03-21 21:12:00,47.0,39.0,29.93,SSE,154,2.0,3.0,75,0.00,,,0.00,,2013-03-22 04:12:00,
2013-03-21 21:32:00,46.0,40.0,29.95,SE,146,2.0,3.0,78,0.00,,,0.00,,2013-03-22 04:32:00,
2013-03-21 21:42:00,46.0,40.0,29.95,SE,146,2.0,3.0,78,0.00,,,0.00,,2013-03-22 04:42:00,
2013-03-21 21:52:00,45.0,39.0,29.95,SE,146,1.0,2.0,78,0.00,,,0.00,,2013-03-22 04:52:00,
2013-03-21 22:02:00,44.0,39.0,29.96,SSE,148,1.0,2.0,81,0.00,,,0.00,,2013-03-22 05:02:00,
2013-03-21 22:12:00,44.0,39.0,29.96,SSE,148,1.0,2.0,81,0.00,,,0.00,,2013-03-22 05:12:00,
2013-03-21 22:22:00,44.0,39.0,29.96,South,183,0.0,2.0,82,0.00,,,0.00,,2013-03-22 05:22:00,
2013-03-21 22:32:00,43.0,38.0,29.96,SSE,159,1.0,3.0,82,0.00,,,0.00,,2013-03-22 05:32:00,
2013-03-21 22:42:00,43.0,38.0,29.96,SSE,159,1.0,3.0,82,0.00,,,0.00,,2013-03-22 05:42:00,
2013-03-21 22:52:00,43.0,38.0,29.96,SSE,149,1.0,3.0,83,0.00,,,0.00,,2013-03-22 05:52:00,
2013-03-21 23:02:00,42.0,38.0,29.96,SE,144,0.0,3.0,84,0.00,,,0.00,,2013-03-22 06:02:00,
2013-03-21 23:12:00,42.0,38.0,29.96,SE,144,0.0,3.0,84,0.00,,,0.00,,2013-03-22 06:12:00,
2013-03-21 23:22:00,42.0,38.0,29.96,SE,133,1.0,2.0,85,0.00,,,0.00,,2013-03-22 06:22:00,
2013-03-21 23:32:00,41.0,37.0,29.96,SE,138,2.0,4.0,85,0.00,,,0.00,,2013-03-22 06:32:00,
2013-03-21 23:42:00,41.0,37.0,29.96,SE,138,2.0,4.0,85,0.00,,,0.00,,2013-03-22 06:42:00,
2013-03-21 23:52:00,41.0,37.0,29.96,SE,141,1.0,3.0,86,0.00,,,0.00,,2013-03-22 06:52:00,